FW9244 Weather Reports


time (UTC)temp
F
wind
direction
speed
knots
gust
knots
rain 1hr
in
rain 24hr
in
rain mn
in
humidity
%
barometer
mb
20260507051535 58 0 0.0 0.9 0.00 0.00 0.00 77 1018.0
20260507050038 59 0 0.0 1.7 0.00 0.00 0.00 76 1018.1
20260507044542 59 0 0.0 3.5 0.00 0.00 0.00 75 1017.8
20260507043038 60 301 0.0 2.6 0.00 0.00 0.00 75 1017.7
20260507041544 60 296 1.7 3.5 0.00 0.00 0.00 73 1017.5
20260507040043 61 320 2.6 6.1 0.00 0.00 0.00 72 1017.5
20260507034542 61 311 2.6 5.2 0.00 0.00 0.00 71 1017.4
20260507033045 62 316 1.7 5.2 0.00 0.00 0.00 69 1017.3
20260507031552 63 311 2.6 4.3 0.00 0.00 0.00 67 1017.2
20260507030042 64 354 2.6 5.2 0.00 0.00 0.00 65 1016.8
20260507024548 64 281 1.7 5.2 0.00 0.00 0.00 64 1016.8
20260507023037 65 299 3.5 7.8 0.00 0.00 0.00 63 1016.9
20260507021550 67 300 2.6 5.2 0.00 0.00 0.00 60 1016.8
20260507020034 68 224 1.7 5.2 0.00 0.00 0.00 58 1016.8
20260507014543 69 304 2.6 6.1 0.00 0.00 0.00 57 1016.6
20260507013040 70 285 3.5 7.0 0.00 0.00 0.00 54 1016.6
20260507011541 71 286 4.3 7.0 0.00 0.00 0.00 53 1016.4
20260507010042 71 292 2.6 7.8 0.00 0.00 0.00 52 1016.3
20260507004539 72 295 6.1 9.6 0.00 0.00 0.00 51 1016.2
20260507003035 72 301 3.5 9.6 0.00 0.00 0.00 50 1016.2
20260507001538 72 300 5.2 9.6 0.00 0.00 0.00 49 1016.0
20260507000037 72 307 3.5 8.7 0.00 0.00 0.00 48 1016.0
20260506234551 73 297 3.5 8.7 0.00 0.00 0.00 46 1015.9
20260506233039 73 11 1.7 10.4 0.00 0.00 0.00 48 1015.8
20260506231535 72 314 3.5 8.7 0.00 0.00 0.00 46 1015.9
20260506230039 72 266 4.3 9.6 0.00 0.00 0.00 43 1016.1
20260506224535 72 263 3.5 9.6 0.00 0.00 0.00 45 1016.2
20260506223035 71 318 4.3 7.8 0.00 0.00 0.00 45 1016.5
20260506221535 71 244 2.6 10.4 0.00 0.00 0.00 47 1016.5
20260506220036 70 319 4.3 7.8 0.00 0.00 0.00 47 1016.6
20260506214540 70 283 3.5 7.0 0.00 0.00 0.00 49 1016.8
20260506213040 69 2 4.3 9.6 0.00 0.00 0.00 51 1016.8
20260506211538 69 284 4.3 8.7 0.00 0.00 0.00 49 1017.2
20260506210036 69 247 5.2 10.4 0.00 0.00 0.00 50 1017.2
20260506204540 68 308 3.5 7.8 0.00 0.00 0.00 51 1017.2
20260506203041 67 253 3.5 7.8 0.00 0.00 0.00 52 1017.2
20260506201539 66 307 4.3 8.7 0.00 0.00 0.00 53 1017.4
20260506200040 66 295 2.6 7.8 0.00 0.00 0.00 54 1017.7
20260506194536 65 25 4.3 7.8 0.00 0.00 0.00 55 1017.7
20260506193036 65 288 4.3 7.8 0.00 0.00 0.00 56 1017.8
20260506191538 64 0 2.6 7.8 0.00 0.00 0.00 59 1018.1
20260506190039 64 303 1.7 7.8 0.00 0.00 0.00 58 1018.1
20260506184545 63 233 2.6 6.1 0.00 0.00 0.00 59 1018.2
20260506183035 63 245 2.6 6.1 0.00 0.00 0.00 59 1018.5
20260506181538 63 302 0.9 3.5 0.00 0.00 0.00 60 1018.6
20260506180038 63 215 0.9 6.1 0.00 0.00 0.00 60 1018.6
20260506174537 62 191 1.7 3.5 0.00 0.00 0.00 62 1018.4
20260506173055 61 182 1.7 5.2 0.00 0.00 0.00 64 1018.5
20260506171535 59 274 0.9 3.5 0.00 0.00 0.00 65 1018.5
20260506170040 59 291 1.7 3.5 0.00 0.00 0.00 66 1018.5
20260506164538 58 135 0.9 3.5 0.00 0.00 0.00 69 1018.6
20260506163041 56 0 0.0 3.5 0.00 0.00 0.00 71 1018.5
20260506161536 56 0 0.0 5.2 0.00 0.00 0.00 71 1018.3
20260506160036 55 264 1.7 3.5 0.00 0.00 0.00 73 1018.2
20260506154548 55 278 0.9 3.5 0.00 0.00 0.00 76 1018.3
20260506153042 55 0 0.0 0.9 0.00 0.00 0.00 74 1018.2
20260506151535 55 0 0.0 0.9 0.00 0.00 0.00 77 1018.4
20260506150036 55 0 0.0 0.0 0.00 0.00 0.00 79 1018.3
20260506144538 51 0 0.0 0.0 0.00 0.00 0.00 86 1018.4
20260506143042 48 0 0.0 0.0 0.00 0.00 0.00 90 1018.3
20260506141535 47 0 0.0 0.0 0.00 0.00 0.00 90 1018.3
20260506140035 47 0 0.0 0.0 0.00 0.00 0.00 90 1018.2
20260506134535 47 0 0.0 0.9 0.00 0.06 0.00 91 1018.0
20260506133035 46 0 0.0 0.0 0.00 0.06 0.00 91 1017.9
20260506131545 47 0 0.0 0.9 0.00 0.06 0.00 90 1017.7
20260506130049 47 0 0.0 0.9 0.00 0.06 0.00 89 1017.6
20260506124537 47 0 0.0 0.9 0.00 0.26 0.00 89 1017.6
20260506123035 47 0 0.0 0.9 0.00 0.26 0.00 87 1017.4
20260506121535 47 0 0.0 0.0 0.00 0.26 0.00 87 1017.3
20260506120040 48 0 0.0 0.9 0.00 0.26 0.00 85 1017.3
20260506114540 48 0 0.0 0.9 0.00 0.26 0.00 85 1017.2
20260506113046 49 0 0.0 0.9 0.00 0.26 0.00 86 1017.3
20260506111535 48 0 0.0 0.9 0.00 0.26 0.00 86 1017.3
20260506110040 48 0 0.0 0.0 0.00 0.26 0.00 86 1017.3
20260506104541 48 0 0.0 0.9 0.00 0.27 0.00 85 1017.3
20260506103047 49 0 0.0 0.9 0.00 0.27 0.00 85 1017.2
20260506101548 48 0 0.0 0.0 0.00 0.27 0.00 84 1017.2
20260506100057 49 84 0.0 1.7 0.00 0.27 0.00 83 1017.2
20260506094536 48 58 0.0 1.7 0.00 0.27 0.00 85 1017.3
20260506093041 48 0 0.0 0.0 0.00 0.27 0.00 84 1017.3
20260506091539 49 0 0.0 0.0 0.00 0.27 0.00 82 1017.3
20260506090034 50 0 0.0 0.0 0.00 0.27 0.00 80 1017.4
20260506084624 50 0 0.0 0.9 0.00 0.28 0.00 80 1017.6
20260506083035 50 0 0.0 0.9 0.00 0.28 0.00 81 1017.8
20260506081544 50 0 0.0 1.7 0.00 0.28 0.00 80 1017.7
20260506073045 51 0 0.0 1.7 0.00 0.32 0.00 79 1017.8
20260506071538 51 34 0.9 2.6 0.00 0.32 0.00 79 1017.7
20260506061535 53 343 0.9 2.6 0.00 0.32 0.32 76 1017.2